Weather History for KHIF - September, 2013

Change the Weather History Date:

Sunday, September 29, 2013

  Actual Average Record
Temperature  
Mean Temperature 58 °F -  
Max Temperature 68 °F 67 °F 83 °F (2010)
Min Temperature 47 °F 47 °F 33 °F (2007)
Degree Days  
Heating Degree Days 8    
Growing Degree Days 8 (Base 50)    
Moisture  
Dew Point 28 °F    
Average Humidity 30    
Maximum Humidity 46    
Minimum Humidity 20    
Precipitation  
Precipitation 0.00 in - - ()
Sea Level Pressure  
Sea Level Pressure 29.95 in    
Wind  
Wind Speed 9 mph (South)    
Max Wind Speed 18 mph    
Max Gust Speed 37 mph    
Visibility 10 miles    
Events      
Averages and records for this station are not official NWS values.
T = Trace of Precipitation, MM = Missing Value Source: NWS Daily Summary

Daily Weather History Graph

Daily Weather History Graph

Search for Another Location

Airport or City:

Trip Planner

Search our weather history database for the weather conditions in past years. The results will help you decide how hot, cold, wet, or windy it might be!

Date:

Astronomy

Sep. 29, 2013 Rise Set
Actual Time 7:22 AM MDT 7:12 PM MDT
Civil Twilight 6:55 AM MDT 7:40 PM MDT
Nautical Twilight 6:23 AM MDT 8:11 PM MDT
Astronomical Twilight 5:50 AM MDT 8:44 PM MDT
Moon 2:05 AM MDT (9/29) 4:13 PM MDT (9/29)
Length of Visible Light 12h 44m
Length of Day
11h 49m
Waning Crescent, 26% of the Moon is Illuminated
Sep 29
Waning Crescent
Oct 4
New
Oct 11
First Quarter
Oct 18
Full
Oct 26
Last Quarter

Hourly Weather History & Observations

Time (MDT) Temp. Dew Point Humidity Pressure Visibility Wind Dir Wind Speed Gust Speed Precip Events Conditions
12:58 AM 49.5 °F 26.4 °F 41% 30.04 in 10.0 mi ENE 3.5 mph - N/A   Clear
1:58 AM 49.6 °F 25.5 °F 39% 30.02 in 10.0 mi NE 2.3 mph - N/A   Clear
2:58 AM 48.7 °F 26.4 °F 42% 30.02 in 10.0 mi ENE 3.5 mph - N/A   Clear
3:58 AM 48.7 °F 25.5 °F 40% 29.99 in 10.0 mi East 2.3 mph - N/A   Partly Cloudy
4:58 AM 48.6 °F 26.2 °F 42% 29.99 in 10.0 mi South 4.6 mph - N/A   Partly Cloudy
5:58 AM 47.8 °F 27.9 °F 46% 29.97 in 10.0 mi South 6.9 mph - N/A   Overcast
6:58 AM 48.4 °F 27.1 °F 44% 29.98 in 10.0 mi South 2.3 mph - N/A   Partly Cloudy
7:58 AM 55.0 °F 26.8 °F 34% 29.98 in 10.0 mi South 4.6 mph - N/A   Scattered Clouds
8:58 AM 58.8 °F 26.6 °F 29% 29.97 in 10.0 mi South 11.5 mph - N/A   Scattered Clouds
9:58 AM 60.6 °F 26.8 °F 28% 29.98 in 10.0 mi South 15.0 mph - N/A   Partly Cloudy
10:58 AM 63.5 °F 26.4 °F 25% 29.96 in 10.0 mi South 17.3 mph 21.9 mph N/A   Clear
11:58 AM 67.3 °F 25.2 °F 20% 29.93 in 10.0 mi South 16.1 mph 21.9 mph N/A   Partly Cloudy
12:58 PM 67.5 °F 26.6 °F 22% 29.92 in 10.0 mi South 18.4 mph - N/A   Partly Cloudy
1:58 PM 68.4 °F 28.9 °F 23% 29.89 in 10.0 mi South 17.3 mph 23.0 mph N/A   Scattered Clouds
2:55 PM 68.0 °F 28.4 °F 23% 30.01 in 10.0 mi SW 16.1 mph 36.8 mph N/A   Partly Cloudy
2:57 PM 68.0 °F 28.4 °F 23% 30.03 in 10.0 mi West 12.7 mph 36.8 mph N/A   Clear
2:58 PM 67.3 °F 28.8 °F 24% 29.92 in 10.0 mi West 12.7 mph 36.8 mph N/A   Clear
3:03 PM 68.0 °F 28.4 °F 23% 30.03 in 10.0 mi SW 11.5 mph 28.8 mph N/A   Partly Cloudy
3:25 PM 66.2 °F 32.0 °F 28% 30.03 in 10.0 mi SW 16.1 mph 29.9 mph N/A   Partly Cloudy
7:14 PM 62.6 °F 32.0 °F 32% 29.96 in 10.0 mi South 10.4 mph - N/A   Partly Cloudy
7:58 PM 64.4 °F 30.2 °F 28% 29.84 in 10.0 mi South 12.7 mph - N/A   Overcast
8:53 PM 64.4 °F 32.0 °F 30% 29.96 in 10.0 mi South 13.8 mph - N/A   Mostly Cloudy
8:58 PM 64.6 °F 30.6 °F 28% 29.83 in 10.0 mi South 13.8 mph - N/A   Mostly Cloudy
9:58 PM 65.1 °F 30.7 °F 28% 29.85 in 10.0 mi South 13.8 mph - N/A   Mostly Cloudy
10:43 PM 64.4 °F 32.0 °F 30% 29.97 in 10.0 mi South 13.8 mph - N/A   Overcast
10:58 PM 64.9 °F 30.2 °F 27% 29.83 in 10.0 mi South 12.7 mph - N/A   Overcast
11:43 PM 68.0 °F 28.4 °F 23% 29.96 in 10.0 mi South 16.1 mph 29.9 mph N/A   Overcast
11:58 PM 66.6 °F 28.6 °F 24% 29.81 in 10.0 mi South 12.7 mph - N/A   Overcast